Погода в Шепетовке

Погода в Шепетовке : погода сейчас, прогноз погоды и архив. Всё, что Вы хотите узнать о погоде в Шепетовке!

Хотите узнать прогноз погоды в Шепетовке? Тогда Вам сюда: Погода в Шепетовке

Поиск расширенной информации на нашем сайте:

Другие новости

Новости СМИ2

Главная страница сайта

Новости сайта

02.10.2013

Напоминаем, что на нашем новом сайте вы можете получить высокодетализированные прогнозы погоды по пунктам России, СНГ и мира (включающие важные для авиации метеовеличины, такие как направление и скорость ветра, видимость, явления погоды, количество и форма облачности, нижняя и верхняя граница облачности), а также ознакомиться с разнообразными материалами по авиационной метеорологии и подборкой полезных ссылок на эту тему.

Сайт Метеоцентр.Азия посвящён разработке технологий оптимизации авиаметеорологического обслуживания, включая проектирование и перспективное создание нескольких автоматизированных авиаметеорологических систем:
- система выпуска высокодетальных прогностических карт явлений погоды для нижнего воздушного пространства по России и ближнему зарубежью;
- система верификации прогнозов TAF (выпускаемых синоптиками официальных АМСГ РФ и ближнего зарубежья) и AUTOTAF (выпускаемых сайтом Метеоцентр.Азия) - выявление ошибок, онлайн-сопоставление с фактической погодой METAR, автоматическое внесение коррективов в прогнозы при резком отклонении фактической погоды от прогноза, подсчёт оправдываемости прогнозов по элементам и в целом;
- система обработки, анализа и отображения авиаметеорологической информации для применения провайдерами метеорологической информации.


Погода в Шепетовке - сегодня

Время (UTC), дата Ветер
(°,м/с) 
Видим.   Явления Облачность Т
(°С)
Тd
(°С)
f(%) Тe
(°С)
Pmin
(гПа)
dP
(гПа)
Po
(мм)
O2
(г/м3)
Тmin Tmax R s Состояние
почвы
15 19.01.17 210 (ЮЗ) 10 км    10/10 480 м 
[Sc]
-8.4 -9.9 89 -11  1039.6  -1  752  314           
18 19.01.17 230 (ЮЗ) н/о    9/9 480 м 
[Sc]
-10.1 -10.7 95 -12  1038.5  -1.2  752  315    -4.2       
21 19.01.17 220 (ЮЗ) н/о    10/10 450 м 
[Sc]
-10.5 -11.8 90 -12  1037.8  -0.8  751  316           
00 20.01.17 230 (ЮЗ) н/о    10/10 480 м 
[Sc]
-10.8 -12.1 90 -13  1036.7  -1.1  750  316           
03 20.01.17 230 (ЮЗ) н/о    9/4 300 м средняя 
[Sc|Ac trans]
-9.4 -10.6 91 -11  1034.8  -1.6  749  314           
06 20.01.17 240 (ЮЗ) 10 км    9/0 средняя 
[Ac und]
-8.1 -9.1 92 -10  1033.3  -1.3  748  311  -11.4      18  равномерный
мокрый или
старый снег
100% 
09 20.01.17 250 (З) 2000 м  дымка  10/0 средняя 
[Ac As]
-5.7 -6.1 97 -7  1032.7  -0.2  748  308           
12 20.01.17 260 (З) 2000 м  слаб. переохл. морось (гололёд)  10/10 330 м 
[St]
-4.2 -4.4 99 -5  1031.3  -1.2  747  306      0.1     
15 20.01.17 260 (З) 2000 м  слаб. снег{морось}  10/10 330 м 
[Frnb|Ns]
-4.2 -4.4 99 -5  1030.5  -0.8  746  306           
18 20.01.17 260 (З) 2000 м  слаб. снег{морось} [диам. гололёда 2 мм]  10/10 330 м 
[Frnb|Ns]
-3.9 -4.1 98 -5  1029.8  -0.6  746  305    -3.9  0.5     
21 20.01.17 260 (З) 2000 м  дымка{снег}  10/10 330 м 
[St]
-3 -3.4 97 -4  1029.3  -0.4  746  304           
00 21.01.17 260 (З) 2000 м  дымка{снег} [диам. гололёда 2 мм]  10/10 330 м 
[St]
-2.5 -2.8 98 -4  1027.8  -1.3  745  303      0.2     
03 21.01.17 280 (З) 2000 м  дымка  10/10 330 м 
[St]
-1.2 -1.4 99 -2  1026.7  -0.9  744  301           
06 21.01.17 280 (З) 2000 м  дымка [диам. гололёда 2 мм]  10/10 330 м 
[St]
-1 -1.4 97 -3  1026.7  744  301  -3.9    0.2  18  равномерный
сухой снег
100% 
09 21.01.17 280 (З) 4000 м  дымка{снег}  10/10 420 м 
[Sc]
-0.2 -1.1 94 -1  1027.8  1.2  745  300           
12 21.01.17 280 (З) 4000 м  дымка{снег}  10/10 540 м 
[Sc]
+0.6 -0.2 94 -1  1027.4  -0.3  745  299      0.2     
15 21.01.17 280 (З) 4000 м  дымка  10/10 540 м 
[Sc]
+0.6 -0.2 94 -2  1027.7  0.3  745  299           
18 21.01.17 300 (СЗ) 4000 м  дымка  10/10 480 м 
[Sc]
+0.4 -0.4 94 -1  1029.5  1.7  746  300    +0.9  0.2     
21 21.01.17 310 (СЗ) 4000 м  дымка{ливн. осадки}  10/10 450 м 
[Sc]
+0.3 -0.3 96 1031.6  748  301           
00 22.01.17 300 (СЗ) 4000 м  дымка{ливн. осадки}  10/10 420 м 
[Sc]
+0.3 -0.3 96 +1  1032.5  0.9  748  301      0.3     
03 22.01.17 320 (СЗ) 4000 м  дымка  10/10 420 м 
[Sc]
-0.1 -0.9 94 +1  1033.5  0.9  749  302           
06 22.01.17 тихо ()   4000 м  дымка  10/10 450 м 
[Sc]
-0.6 -1.5 94 -1  1034.3  0.7  749  303  -0.8    0.3  15  равномерный
мокрый или
старый снег
100% 
09 22.01.17 тихо ()   10 км    10/10 540 м 
[Sc]
+0.3 -2.4 82 1035.2  750  302           
12 22.01.17 270 (З) 10 км    9/9 570 м 
[Sc]
+1.4 -3.8 68 +1  1034.2  -0.9  749  301           
15 22.01.17 260 (З) 10 км    9/9 500 м 
[Sc]
+0.3 -3.7 74 +1  1034  -0.3  749  302           
Время (UTC), дата Ветер
(°,м/с) 
Видим.   Явления Облачность Т
(°С)
Тd
(°С)
f(%) Тe
(°С)
Pmin
(гПа)
dP
(гПа)
Po
(мм)
O2
(г/м3)
Тmin Tmax R s Состояние
почвы

Для получения пояснительной информации подведите курсор к названию столбца.

ПОГОДА в Шепетовке - архив

Всё, что Вы хотите узнать о погоде в Шепетовке - удобно и подробно!

Выберите нужную дату (начиная с 1 января 2015* года) и нажмите кнопку "Найти".
Будут отображены архивные сводки погоды по пункту Шепетовка, начиная с указанной даты.


Отображать данные в формате CSV (для использования в таблицах Excel)


Внимание! Наш архив погоды предназначен исключительно для личного некоммерческого использования в познавательных целях. Если Вам необходимы официальные справки о состоянии погоды (для производственных, юридических, коммерческих и т.п. целей), обращайтесь в органы Росгидромета.

*Примечание: данная дата относится к архиву по метеостанциям СССР (Россия, СНГ, Балтия).
Архив по метеостанциям Зарубежной Европы и Азии (кроме Китая) хранится 10 дней, по другим регионам земного шара (Китай, Африка, Америка, Австралия, Океания) - 1 день.

Шепетовка - район местоположения метеостанции


Название, широта, долгота, высота метеостанции:
Шепетовка 50.2°ш. 27°д. 278 м над ур. моря [Украина]

Дополнительная информация

В oтличие oт бoльшинства пoгoдных сайтoв мы публикуем пoдрoбную метеoинфoрмацию в детальнoм прoфессиoнальнoм фoрмате.

Характеристики температуры и влажнoсти вoздуха измеряются на высoте 2 м в тени вдали oт зданий и деревьев.
Скoрoсть ветра измеряется на высoте 10 м (на урoвне рoста челoвека скoрoсть ветра ниже в 1.5-2 раза). Если метеoстанция нахoдится в гoрoде или в лесу, тo скoрoсть ветра занижена на 2-4 м/с пo сравнению с oткрытым местoм. Скoрoсть ветра над акватoриями крупных рек и oзёр, а также на вершинах хoлмoв на 2-5 м/с выше, чем в oбычных услoвиях.
Атмoсфернoе давление в разных тoчках местнoсти мoжет значительнo oтличаться oт давления на метеoстанции, в зависимoсти oт услoвий рельефа (при пoдъёме на 10 м давление пoнижается примернo на 1 мм рт.ст.).